Waarnemingen

Advertentie
Mijn weer
Wick Airport (AWS), Groot Brittannië (3075): temperatuur & dauwpunt: 10.01.2021 03:00:00 - 16.01.2021 03:00:00 (GMT)Wick Airport (AWS), Groot Brittannië (3075): temperatuur -20cm: 10.01.2021 03:00:00 - 16.01.2021 03:00:00 (GMT)Wick Airport (AWS), Groot Brittannië (3075): luchtdruk: 10.01.2021 03:00:00 - 16.01.2021 03:00:00 (GMT)Wick Airport (AWS), Groot Brittannië (3075): zicht: 10.01.2021 03:00:00 - 16.01.2021 03:00:00 (GMT)Wick Airport (AWS), Groot Brittannië (3075): neerslag: 10.01.2021 03:00:00 - 16.01.2021 03:00:00 (GMT)
Datum & Tijd tt [°C] td [°C] tt -20cm [°C] ppp [hPa] vv [km] rr [mm]
16.01.2021 03:00:00 3,9 2,6 - 1008,7 7 0,8
16.01.2021 02:00:00 4,5 1,1 - 1010,3 17 0,0
16.01.2021 01:00:00 4,2 0,4 - 1011,8 17 0,0
16.01.2021 00:00:00 4,0 0,0 - 1013,8 30 0,0
15.01.2021 23:00:00 3,6 0,9 - 1015,1 30 0,0
15.01.2021 22:00:00 3,6 0,9 - 1016,7 30 0,0
15.01.2021 21:00:00 3,8 1,0 - 1017,7 50 0,0
15.01.2021 20:00:00 3,9 1,2 - 1018,6 45 0,0
15.01.2021 19:00:00 4,1 1,6 - 1019,8 40 0,0
15.01.2021 18:00:00 4,9 2,4 - 1020,5 28 0,0
15.01.2021 17:00:00 4,8 1,8 - 1021,6 12 0,0
15.01.2021 16:00:00 4,9 2,0 - 1022,3 45 0,0
15.01.2021 15:00:00 4,1 1,7 - 1023,2 35 0,0
15.01.2021 14:00:00 5,3 3,1 - 1024,0 22 0,0
15.01.2021 13:00:00 5,3 2,9 - 1024,8 21 0,0
15.01.2021 12:00:00 5,4 2,4 - 1025,0 20 0,0
15.01.2021 11:00:00 4,4 1,3 - 1025,4 30 0,0
15.01.2021 10:00:00 4,2 1,3 - 1025,3 24 0,0
15.01.2021 09:00:00 3,3 1,2 3,0 1024,9 20 0,0
15.01.2021 08:00:00 3,3 1,7 - 1024,4 21 0,0
15.01.2021 07:00:00 3,6 2,0 - 1024,0 28 0,0
15.01.2021 06:00:00 3,3 1,9 - 1023,7 35 0,0
15.01.2021 05:00:00 3,5 2,0 - 1023,4 26 0,0
15.01.2021 04:00:00 4,4 2,6 - 1023,1 35 0,0
15.01.2021 03:00:00 5,1 3,4 - 1023,0 35 0,0
15.01.2021 02:00:00 4,6 3,9 - 1022,8 40 0,0
15.01.2021 01:00:00 4,7 3,8 - 1022,3 50 0,0
15.01.2021 00:00:00 4,6 4,0 - 1022,2 50 0,0
14.01.2021 23:00:00 4,3 3,8 - 1021,9 35 0,0
14.01.2021 22:00:00 4,6 4,0 - 1021,6 27 0,0
14.01.2021 21:00:00 4,5 3,9 - 1021,3 15 0,0
14.01.2021 20:00:00 4,3 3,5 - 1021,1 9 0,2
14.01.2021 19:00:00 4,2 2,9 - 1021,0 8 0,4
14.01.2021 18:00:00 4,3 2,7 - 1020,8 13 1,0
14.01.2021 17:00:00 4,5 2,5 - 1020,6 13 0,2
14.01.2021 16:00:00 5,0 2,2 - 1020,2 21 0,0
14.01.2021 15:00:00 5,0 1,8 - 1020,1 16 0,0
14.01.2021 14:00:00 5,1 1,8 - 1020,0 12 0,0
14.01.2021 13:00:00 5,4 1,8 - 1020,0 17 0,0
14.01.2021 12:00:00 5,6 1,8 - 1019,7 16 0,0
14.01.2021 11:00:00 5,5 2,2 - 1019,4 21 0,0
14.01.2021 10:00:00 5,4 2,9 - 1018,7 16 0,0
14.01.2021 09:00:00 5,3 2,2 2,4 1018,1 16 0,0
14.01.2021 08:00:00 5,4 3,0 - 1017,4 10 0,0
14.01.2021 07:00:00 5,5 3,1 - 1016,9 16 0,0
14.01.2021 06:00:00 5,8 2,8 - 1016,5 16 0,0
14.01.2021 05:00:00 5,9 2,5 - 1016,3 15 0,0
14.01.2021 04:00:00 5,8 2,2 - 1016,2 17 0,0
14.01.2021 03:00:00 5,7 3,1 - 1015,8 15 0,0
14.01.2021 02:00:00 5,7 1,4 - 1015,8 20 0,0
14.01.2021 01:00:00 5,6 1,8 - 1015,7 19 0,0
14.01.2021 00:00:00 5,6 1,8 - 1015,7 15 0,0
13.01.2021 23:00:00 5,5 1,9 - 1015,7 24 0,0
13.01.2021 22:00:00 4,9 2,8 - 1015,7 9 0,0
13.01.2021 21:00:00 5,4 2,3 - 1015,5 18 0,0
13.01.2021 20:00:00 5,6 2,5 - 1015,4 26 0,0
13.01.2021 19:00:00 5,2 1,6 - 1015,4 27 0,0
13.01.2021 18:00:00 5,0 1,8 - 1015,5 30 0,0
13.01.2021 17:00:00 1,8 0,0 - 1015,5 11 0,0
13.01.2021 16:00:00 2,0 -0,4 - 1015,4 30 0,0
13.01.2021 15:00:00 1,2 -0,3 - 1015,8 30 0,0
13.01.2021 14:00:00 1,1 -0,3 - 1016,1 35 0,0
13.01.2021 13:00:00 1,0 -0,3 - 1016,4 35 0,0
13.01.2021 12:00:00 0,7 -0,8 - 1016,9 30 0,0
13.01.2021 11:00:00 -0,4 -1,8 - 1017,1 35 0,0
13.01.2021 10:00:00 -0,6 -2,1 - 1017,0 35 0,0
13.01.2021 09:00:00 0,0 -1,6 2,5 1016,5 35 0,0
13.01.2021 08:00:00 0,0 -1,5 - 1016,4 45 0,0
13.01.2021 07:00:00 -0,2 -1,8 - 1016,3 45 0,0
13.01.2021 06:00:00 -0,1 -2,0 - 1016,2 35 0,0
13.01.2021 05:00:00 0,6 -1,2 - 1016,4 40 0,0
13.01.2021 04:00:00 -0,4 -2,2 - 1016,3 50 0,0
13.01.2021 03:00:00 0,8 -0,9 - 1016,3 17 0,0
13.01.2021 02:00:00 0,1 -1,3 - 1016,2 50 0,0
13.01.2021 01:00:00 1,0 0,0 - 1016,4 45 0,0
13.01.2021 00:00:00 1,7 0,4 - 1016,5 40 0,0
12.01.2021 23:00:00 2,5 1,4 - 1016,3 30 0,2
12.01.2021 22:00:00 1,9 0,6 - 1016,0 40 0,2
12.01.2021 21:00:00 2,2 0,9 - 1015,9 50 0,0
12.01.2021 20:00:00 1,5 0,6 - 1015,7 30 0,0
12.01.2021 19:00:00 1,6 0,5 - 1015,5 30 0,0
12.01.2021 18:00:00 1,5 -0,4 - 1015,1 40 0,0
12.01.2021 17:00:00 1,9 -1,0 - 1014,9 40 0,0
12.01.2021 16:00:00 2,2 0,3 - 1014,5 35 0,0
12.01.2021 15:00:00 2,9 1,2 - 1014,3 28 0,2
12.01.2021 14:00:00 3,5 1,7 - 1013,9 29 0,0
12.01.2021 13:00:00 2,5 1,6 - 1013,4 23 0,0
12.01.2021 12:00:00 1,3 0,5 - 1013,7 35 0,6
12.01.2021 11:00:00 1,8 0,7 - 1013,3 29 0,0
12.01.2021 10:00:00 0,3 -1,2 - 1012,9 21 0,0
12.01.2021 09:00:00 -0,5 -2,4 2,7 1012,2 35 0,0
12.01.2021 08:00:00 1,7 -0,5 - 1011,4 28 0,0
12.01.2021 07:00:00 -0,4 -1,8 - 1010,6 30 0,0
12.01.2021 06:00:00 -0,5 -1,8 - 1010,0 40 0,0
12.01.2021 05:00:00 1,2 -0,4 - 1009,2 24 0,0
12.01.2021 04:00:00 2,9 -0,1 - 1008,4 35 0,0
12.01.2021 03:00:00 2,0 -0,3 - 1007,2 23 0,0
12.01.2021 02:00:00 1,7 0,1 - 1006,2 40 0,2
12.01.2021 01:00:00 2,1 -0,3 - 1005,6 35 0,0
12.01.2021 00:00:00 1,8 0,0 - 1005,0 28 0,0
11.01.2021 23:00:00 2,2 -0,7 - 1004,2 45 0,0
11.01.2021 22:00:00 1,4 -0,2 - 1003,9 30 0,0
11.01.2021 21:00:00 1,2 -0,3 - 1003,5 35 0,2
11.01.2021 20:00:00 1,3 -0,1 - 1003,0 30 0,0
11.01.2021 19:00:00 0,5 -0,7 - 1002,8 40 0,0
11.01.2021 18:00:00 0,3 -2,1 - 1002,5 35 0,0
11.01.2021 17:00:00 0,7 -1,3 - 1002,6 45 0,0
11.01.2021 16:00:00 0,8 -1,5 - 1002,3 45 0,0
11.01.2021 15:00:00 1,6 -1,0 - 1001,9 40 0,0
11.01.2021 14:00:00 2,2 -0,1 - 1001,5 16 0,0
11.01.2021 13:00:00 1,9 0,3 - 1001,3 20 0,0
11.01.2021 12:00:00 1,9 1,1 - 1001,2 40 0,0
11.01.2021 11:00:00 1,8 1,3 - 1001,2 45 0,0
11.01.2021 10:00:00 1,8 1,2 - 1001,2 28 0,4
11.01.2021 09:00:00 2,3 2,0 2,5 1001,2 6 1,0
11.01.2021 08:00:00 1,9 1,6 - 1001,2 10 0,6
11.01.2021 07:00:00 2,0 1,5 - 1001,2 11 0,8
11.01.2021 06:00:00 2,6 2,1 - 1001,3 9 1,0
11.01.2021 05:00:00 3,2 2,7 - 1001,3 20 0,6
11.01.2021 04:00:00 4,3 3,8 - 1001,2 7 0,6
11.01.2021 03:00:00 4,9 4,1 - 1001,5 5 0,0
11.01.2021 02:00:00 5,8 4,6 - 1001,3 50 0,2
11.01.2021 01:00:00 4,9 3,9 - 1002,6 30 0,0
11.01.2021 00:00:00 4,9 4,0 - 1003,7 13 0,0
10.01.2021 23:00:00 5,0 4,0 - 1004,8 40 0,4
10.01.2021 22:00:00 4,6 4,0 - 1005,9 13 0,6
10.01.2021 21:00:00 4,0 3,5 - 1006,9 21 0,4
10.01.2021 20:00:00 3,6 3,2 - 1008,0 15 0,4
10.01.2021 19:00:00 3,4 2,9 - 1009,2 16 0,4
10.01.2021 18:00:00 2,9 2,4 - 1010,1 15 0,6
10.01.2021 17:00:00 2,6 2,0 - 1011,1 14 0,2
10.01.2021 16:00:00 2,6 1,9 - 1011,7 25 0,2
10.01.2021 15:00:00 2,8 2,1 - 1012,3 15 0,2
10.01.2021 14:00:00 2,7 2,1 - 1012,7 21 0,4
10.01.2021 13:00:00 2,4 1,7 - 1013,6 11 0,4
10.01.2021 12:00:00 2,2 1,1 - 1014,6 29 0,0
10.01.2021 11:00:00 1,8 0,3 - 1015,2 30 0,2
10.01.2021 10:00:00 1,7 -0,7 - 1015,8 24 0,0
10.01.2021 09:00:00 1,4 -1,2 2,2 1016,1 30 0,0
10.01.2021 08:00:00 1,4 -1,2 - 1016,2 40 0,0
10.01.2021 07:00:00 1,1 -1,0 - 1016,6 35 0,0
10.01.2021 06:00:00 0,5 -1,4 - 1017,0 30 0,0
10.01.2021 05:00:00 0,2 -1,6 - 1017,4 40 0,0
10.01.2021 04:00:00 0,7 -0,7 - 1017,6 40 0,0
10.01.2021 03:00:00 0,5 -0,2 - 1018,5 2,2 0,0

tt = temperatuur
td = dauwpunt
tt -20cm = temperatuur -20cm
ppp = luchtdruk
vv = zicht
rr = neerslag

Weerstations in de omgeving